Home   Weather   Virginia Beach   Past weeks
Flag for USA

Past Weather in Virginia Beach, Virginia, USA — Yesterday and Last 2 Weeks

Now
50 °F

Mostly cloudy.


Feels Like: 44 °F
Forecast: 52 / 45 °F
Wind: 16 mph from East

Location: Virginia Beach - Oceana

Current Time: Jan 19, 2019 at 3:48:09 pm

Latest Report: Jan 19, 2019 at 2:56 pm


Visibility: 10 mi

Pressure: 30.03 "Hg

Humidity: 77%

Dew Point: 43 °F

Location of Virginia BeachLocation

Past Weather in Virginia Beach — Graph

°F

Virginia Beach Temperature Yesterday

Maximum temperature yesterday: 51 °F (at 12:56 pm)
Minimum temperature yesterday: 39 °F (at 3:56 am)
Average temperature yesterday: 44 °F

High & Low Weather Summary for the Past Weeks

 TemperatureHumidityPressure
High64 °F (Jan 6, 12:56 pm)100% (Jan 4, 5:08 pm)30.54 "Hg (Jan 4, 5:08 pm)
Low26 °F (Jan 16, 4:56 am)31% (Jan 9, 11:56 am)29.49 "Hg (Jan 5, 5:56 am)
Average42 °F73%30.11 "Hg
* Reported Jan 4 1:56 pm — Jan 19 1:56 pm, Virginia Beach. Weather by CustomWeather, © 2019

Note: Actual official high and low records may vary slightly from our data, if they occured in-between our weather recording intervals... More about our weather records

Advertising

Virginia Beach Weather History for the Previous 24 Hours

Scroll right to see more
 ConditionsComfort  
Time TempWeatherWind HumidityBarometerVisibility
1:56 pm
Sat, Jan 19
50 °FPartly sunny.15 mph74%30.05 "Hg10 mi
12:56 pm49 °FMostly cloudy.12 mph80%30.09 "Hg10 mi
11:56 am49 °FPartly sunny.12 mph80%30.14 "Hg10 mi
10:56 am49 °FPartly sunny.12 mph74%30.18 "Hg10 mi
9:56 am47 °FOvercast.10 mph80%30.17 "Hg10 mi
8:56 am45 °FOvercast.10 mph82%30.16 "Hg10 mi
7:56 am44 °FOvercast.7 mph85%30.18 "Hg10 mi
6:56 am43 °FOvercast.6 mph86%30.18 "Hg10 mi
5:56 am42 °FOvercast.7 mph85%30.18 "Hg10 mi
4:56 am43 °FOvercast.8 mph82%30.17 "Hg10 mi
3:56 am43 °FOvercast.6 mph82%30.19 "Hg10 mi
2:56 am43 °FOvercast.8 mph89%30.19 "Hg10 mi
1:56 am43 °FOvercast.5 mph86%30.19 "Hg10 mi
12:56 am42 °FOvercast.6 mph82%30.19 "Hg10 mi
11:56 pm
Fri, Jan 18
43 °FOvercast.7 mph79%30.21 "Hg10 mi
10:56 pm43 °FOvercast.7 mph79%30.20 "Hg10 mi
9:56 pm44 °FOvercast.5 mph79%30.19 "Hg10 mi
8:56 pm44 °FPassing clouds.6 mph79%30.17 "Hg10 mi
7:56 pm43 °FPassing clouds.5 mph82%30.16 "Hg10 mi
6:56 pm41 °FPassing clouds.3 mph82%30.14 "Hg10 mi
5:56 pm40 °FPassing clouds.6 mph80%30.12 "Hg10 mi
4:56 pm46 °FScattered clouds.5 mph68%30.09 "Hg10 mi
3:56 pm50 °FScattered clouds.7 mph63%30.09 "Hg10 mi
Weather by CustomWeather, © 2019

See weather overview